| time (UTC) | temp F | wind direction | speed MPH | gust MPH | rain 1hr in | rain 24hr in | rain mn in | humidity % | barometer mb |
| 20260505163046 | 80 | 6 | 1.0 | 8.0 | 0.00 | 0.00 | 0.00 | 43 | 1002.4 |
| 20260505161544 | 79 | 217 | 0.0 | 5.0 | 0.00 | 0.00 | 0.00 | 45 | 1002.8 |
| 20260505153019 | 74 | 166 | 1.0 | 7.0 | 0.00 | 0.00 | 0.00 | 49 | 1003.6 |
| 20260505151509 | 73 | 229 | 1.0 | 7.0 | 0.00 | 0.00 | 0.00 | 52 | 1004.1 |
| 20260505124519 | 61 | 195 | 0.0 | 3.0 | 0.00 | 0.00 | 0.00 | 66 | 1005.3 |
| 20260505123019 | 60 | 333 | 0.0 | 6.0 | 0.00 | 0.00 | 0.00 | 66 | 1005.3 |
| 20260505121518 | 59 | 204 | 0.0 | 3.0 | 0.00 | 0.00 | 0.00 | 68 | 1005.2 |
| 20260505120032 | 58 | 172 | 0.0 | 2.0 | 0.00 | 0.00 | 0.00 | 67 | 1005.4 |
| 20260505114517 | 57 | 207 | 0.0 | 4.0 | 0.00 | 0.00 | 0.00 | 68 | 1005.4 |
| 20260505113016 | 55 | 190 | 0.0 | 2.0 | 0.00 | 0.00 | 0.00 | 73 | 1005.5 |
| 20260505111524 | 54 | 195 | 0.0 | 1.0 | 0.00 | 0.00 | 0.00 | 74 | 1005.4 |
| 20260505110106 | 55 | 193 | 0.0 | 0.0 | 0.00 | 0.00 | 0.00 | 73 | 1005.5 |
| 20260505101539 | 54 | 207 | 0.0 | 0.0 | 0.00 | 0.00 | 0.00 | 76 | 1005.4 |
| 20260505100031 | 54 | 207 | 0.0 | 1.0 | 0.00 | 0.00 | 0.00 | 72 | 1005.0 |
| 20260505094527 | 55 | 200 | 0.0 | 0.0 | 0.00 | 0.00 | 0.00 | 72 | 1005.1 |
| 20260505093027 | 55 | 200 | 0.0 | 1.0 | 0.00 | 0.00 | 0.00 | 71 | 1004.9 |
| 20260505091530 | 55 | 197 | 0.0 | 1.0 | 0.00 | 0.00 | 0.00 | 69 | 1005.1 |
| 20260505090026 | 55 | 190 | 1.0 | 4.0 | 0.00 | 0.00 | 0.00 | 70 | 1005.0 |
| 20260505084541 | 53 | 205 | 0.0 | 1.0 | 0.00 | 0.00 | 0.00 | 73 | 1005.1 |
| 20260505083042 | 53 | 194 | 0.0 | 1.0 | 0.00 | 0.00 | 0.00 | 77 | 1005.3 |
| 20260505081527 | 52 | 194 | 0.0 | 1.0 | 0.00 | 0.00 | 0.00 | 76 | 1005.4 |
| 20260505080023 | 50 | 190 | 0.0 | 5.0 | 0.00 | 0.00 | 0.00 | 81 | 1005.3 |
| 20260505074512 | 48 | 222 | 0.0 | 0.0 | 0.00 | 0.00 | 0.00 | 87 | 1005.3 |
| 20260505073023 | 48 | 224 | 0.0 | 0.0 | 0.00 | 0.00 | 0.00 | 87 | 1005.2 |
| 20260505071512 | 47 | 224 | 0.0 | 0.0 | 0.00 | 0.00 | 0.00 | 88 | 1005.3 |
| 20260505070010 | 48 | 222 | 0.0 | 0.0 | 0.00 | 0.00 | 0.00 | 87 | 1005.2 |
| 20260505064509 | 48 | 222 | 0.0 | 0.0 | 0.00 | 0.00 | 0.00 | 86 | 1005.4 |
| 20260505063009 | 48 | 224 | 0.0 | 0.0 | 0.00 | 0.00 | 0.00 | 86 | 1005.4 |
| 20260505061510 | 48 | 224 | 0.0 | 0.0 | 0.00 | 0.00 | 0.00 | 86 | 1005.3 |
| 20260505060059 | 48 | 224 | 0.0 | 0.0 | 0.00 | 0.00 | 0.00 | 86 | 1005.5 |
| 20260505054552 | 48 | 224 | 0.0 | 0.0 | 0.00 | 0.00 | 0.00 | 86 | 1005.4 |
| 20260505053039 | 48 | 224 | 0.0 | 0.0 | 0.00 | 0.00 | 0.00 | 87 | 1005.5 |
| 20260505051538 | 48 | 224 | 0.0 | 0.0 | 0.00 | 0.00 | 0.00 | 86 | 1005.5 |
| 20260505041542 | 49 | 222 | 0.0 | 0.0 | 0.00 | 0.00 | 0.00 | 85 | 1005.3 |
| 20260505040033 | 49 | 222 | 0.0 | 0.0 | 0.00 | 0.00 | 0.00 | 84 | 1005.3 |
| 20260505034529 | 49 | 222 | 0.0 | 0.0 | 0.00 | 0.00 | 0.00 | 84 | 1005.0 |
| 20260505033019 | 50 | 222 | 0.0 | 0.0 | 0.00 | 0.00 | 0.00 | 83 | 1005.0 |
| 20260505031516 | 50 | 222 | 0.0 | 0.0 | 0.00 | 0.00 | 0.00 | 82 | 1005.1 |
| 20260505030013 | 51 | 222 | 0.0 | 0.0 | 0.00 | 0.00 | 0.00 | 81 | 1005.1 |
| 20260505024511 | 51 | 222 | 0.0 | 1.0 | 0.00 | 0.00 | 0.00 | 80 | 1005.1 |
| 20260505023009 | 52 | 222 | 0.0 | 0.0 | 0.00 | 0.00 | 0.00 | 79 | 1005.4 |
| 20260505021507 | 53 | 222 | 0.0 | 1.0 | 0.00 | 0.00 | 0.00 | 78 | 1005.3 |
| 20260505020004 | 53 | 222 | 0.0 | 0.0 | 0.00 | 0.00 | 0.00 | 76 | 1005.3 |
| 20260505014503 | 54 | 222 | 0.0 | 0.0 | 0.00 | 0.00 | 0.00 | 76 | 1005.1 |
| 20260505013101 | 55 | 222 | 0.0 | 0.0 | 0.00 | 0.00 | 0.00 | 74 | 1005.1 |
| 20260505011544 | 56 | 222 | 0.0 | 0.0 | 0.00 | 0.00 | 0.00 | 73 | 1005.0 |
| 20260505010052 | 57 | 222 | 0.0 | 0.0 | 0.00 | 0.00 | 0.00 | 72 | 1004.9 |
| 20260505004540 | 58 | 222 | 0.0 | 0.0 | 0.00 | 0.00 | 0.00 | 69 | 1004.7 |
| 20260505003049 | 59 | 222 | 0.0 | 1.0 | 0.00 | 0.00 | 0.00 | 66 | 1004.7 |
| 20260505001527 | 61 | 222 | 0.0 | 0.0 | 0.00 | 0.00 | 0.00 | 63 | 1004.5 |
| 20260505000031 | 62 | 222 | 0.0 | 0.0 | 0.00 | 0.00 | 0.00 | 60 | 1004.5 |
| 20260504234524 | 64 | 222 | 0.0 | 0.0 | 0.00 | 0.00 | 0.00 | 56 | 1004.4 |
| 20260504233024 | 65 | 222 | 0.0 | 0.0 | 0.00 | 0.00 | 0.00 | 54 | 1004.3 |
| 20260504231523 | 67 | 222 | 0.0 | 1.0 | 0.00 | 0.00 | 0.00 | 50 | 1004.1 |
| 20260504230023 | 68 | 190 | 0.0 | 0.0 | 0.00 | 0.00 | 0.00 | 48 | 1004.0 |
| 20260504224516 | 69 | 190 | 0.0 | 2.0 | 0.00 | 0.00 | 0.00 | 41 | 1003.7 |
| 20260504223014 | 70 | 197 | 0.0 | 4.0 | 0.00 | 0.00 | 0.00 | 39 | 1003.6 |
| 20260504221509 | 71 | 180 | 0.0 | 3.0 | 0.00 | 0.00 | 0.00 | 36 | 1003.7 |
| 20260504220008 | 71 | 191 | 1.0 | 4.0 | 0.00 | 0.00 | 0.00 | 33 | 1003.6 |
| 20260504214507 | 72 | 188 | 0.0 | 4.0 | 0.00 | 0.00 | 0.00 | 34 | 1003.6 |
| 20260504213018 | 71 | 193 | 0.0 | 7.0 | 0.00 | 0.00 | 0.00 | 36 | 1003.7 |
| 20260504211513 | 72 | 181 | 0.0 | 3.0 | 0.00 | 0.00 | 0.00 | 36 | 1003.7 |
| 20260504210005 | 72 | 358 | 1.0 | 5.0 | 0.00 | 0.00 | 0.00 | 35 | 1003.8 |
| 20260504204547 | 75 | 188 | 0.0 | 5.0 | 0.00 | 0.00 | 0.00 | 34 | 1003.8 |
| 20260504203046 | 74 | 215 | 0.0 | 5.0 | 0.00 | 0.00 | 0.00 | 35 | 1003.8 |
| 20260504201529 | 74 | 201 | 0.0 | 7.0 | 0.00 | 0.00 | 0.00 | 36 | 1004.0 |
| 20260504200025 | 75 | 285 | 3.0 | 10.0 | 0.00 | 0.00 | 0.00 | 33 | 1004.2 |
| 20260504194507 | 76 | 184 | 1.0 | 4.0 | 0.00 | 0.00 | 0.00 | 32 | 1004.2 |
| 20260504193005 | 75 | 153 | 1.0 | 6.0 | 0.00 | 0.00 | 0.00 | 34 | 1004.4 |
| 20260504191607 | 74 | 239 | 1.0 | 8.0 | 0.00 | 0.00 | 0.00 | 37 | 1004.6 |
| 20260504190059 | 72 | 4 | 2.0 | 5.0 | 0.00 | 0.00 | 0.00 | 38 | 1004.8 |
| 20260504184549 | 70 | 203 | 0.0 | 4.0 | 0.00 | 0.00 | 0.00 | 39 | 1004.9 |
| 20260504183040 | 69 | 239 | 0.0 | 3.0 | 0.00 | 0.00 | 0.00 | 42 | 1004.9 |
| 20260504181538 | 68 | 190 | 0.0 | 5.0 | 0.00 | 0.00 | 0.00 | 42 | 1005.1 |
| 20260504180034 | 67 | 190 | 0.0 | 3.0 | 0.00 | 0.00 | 0.00 | 46 | 1005.0 |
| 20260504174532 | 64 | 155 | 0.0 | 7.0 | 0.00 | 0.00 | 0.00 | 48 | 1005.1 |
| 20260504173030 | 64 | 193 | 0.0 | 3.0 | 0.00 | 0.00 | 0.00 | 46 | 1005.3 |
| 20260504171517 | 66 | 253 | 0.0 | 11.0 | 0.00 | 0.00 | 0.00 | 45 | 1005.5 |